Location: Pinhead Observatory
(34.4473°N, 118.1985°W)
Time: 00:02:02
(UTC-07:00)

CZ-4C R/B - Visible Passes

Search period start: 30 July 2014 00:00
Search period end: 09 August 2014 00:00
Orbit: 792 x 1211 km, 63.4° (Epoch: 28 July)

Date Brightness Start Highest point End Pass type
(mag) Time Alt. Az. Time Alt. Az. Time Alt. Az.
30 Jul 4.8 03:01:57 10° N 03:07:36 26° NE 03:13:34 10° E visible
30 Jul 2.8 04:49:37 10° NW 04:56:41 69° WSW 05:04:14 10° SSE visible
31 Jul 5.6 01:49:40 10° NNE 01:51:32 11° NE 01:53:26 10° NE visible
31 Jul 3.7 03:34:54 10° NNW 03:41:43 50° NE 03:48:59 10° SE visible
31 Jul 3.5 05:23:55 10° NW 05:30:08 32° WSW 05:36:39 10° S visible
31 Jul 5.3 20:46:49 10° WNW 20:49:34 14° NW 20:52:26 10° N visible
01 Aug 4.9 02:21:01 10° N 02:26:12 22° NE 02:31:39 10° E visible
01 Aug 2.8 04:08:22 10° NNW 04:15:29 82° WSW 04:23:06 10° SSE visible
02 Aug 3.9 02:53:49 10° NNW 03:00:25 42° NE 03:07:27 10° ESE visible
02 Aug 3.3 04:42:26 10° NW 04:49:00 39° WSW 04:55:54 10° S visible
03 Aug 5.0 01:40:09 10° N 01:44:46 18° NE 01:49:37 10° E visible
03 Aug 2.8 03:27:09 10° NNW 03:34:16 84° ENE 03:41:53 10° SSE visible
03 Aug 4.1 05:17:51 10° WNW 05:22:14 17° WSW 05:26:45 10° SW visible
04 Aug 4.1 02:12:46 10° NNW 02:19:06 35° NE 02:25:50 10° ESE visible
04 Aug 3.0 04:01:02 10° NW 04:07:51 48° WSW 04:15:02 10° S visible
05 Aug 5.1 00:59:22 10° N 01:03:19 16° NE 01:07:25 10° ENE visible
05 Aug 3.0 02:45:58 10° NNW 02:53:02 71° ENE 02:56:07 38° SE visible
05 Aug 3.9 04:35:57 10° WNW 04:41:03 21° WSW 04:41:03 21° WSW visible
06 Aug 4.3 01:31:44 10° N 01:37:45 30° NE 01:40:58 22° E visible
06 Aug 2.9 03:19:42 10° NW 03:26:00 56° W 03:26:00 56° W visible
07 Aug 5.2 00:18:45 10° N 00:21:50 13° NE 00:25:00 10° ENE visible
07 Aug 3.2 02:04:49 10° NNW 02:11:45 59° NE 02:11:45 59° NE visible
07 Aug 4.2 03:54:15 10° WNW 03:56:50 20° WNW 03:56:50 20° WNW visible
08 Aug 4.4 00:50:45 10° N 00:56:23 25° NE 00:57:55 24° ENE visible
08 Aug 3.5 02:38:24 10° NW 02:43:01 44° NW 02:43:01 44° NW visible
08 Aug 5.2 23:38:32 10° NNE 23:40:18 11° NE 23:42:06 10° NE visible
